Date String (YYYY-MM-DD hh:mm:ss) UTC,Instrument flags,absolute air pressure of the measurement (hPa),sample flow rate (lpm),inlet stack bypass flow (lpm),air temperature of the measurement (°C),ambient temperature measured by the external sensor (°C),aerosol sample conditioner tube jacket temperature (°C),OPC LED temperature (°C),internal box temperature (°C),relative humidity of the measurement (%),span deviation,mass concentration of particles derived from Lorenz-Mie calculation of OPC scattering (μg/m³),mass concentration of particles derived from Lorenz-Mie calculation of OPC scattering (μg/m³),mass concentration of particles derived from Lorenz-Mie calculation of OPC scattering (μg/m³)
DateTimeUTC,F1_M11,P_M11,Q1_M11,Q2_M11,T1_M11,T2_M11,T3_M11,T4_M11,T5_M11,U1_M11,ZSPAN_M11,X0_M11,X2_M11,X1_M11
2023-09-01 15:00:00,SystemResetWarning,0830.9,5.00,000.00,028.0,025.7,000.0,036.4,029.5,23.0,0000.0,0008.72,0003.29,0002.49
2023-09-01 15:01:00,SystemResetWarning,0830.9,5.01,000.00,028.1,026.1,000.0,036.5,029.6,21.8,0000.0,0008.75,0003.30,0002.52
2023-09-01 15:02:00,SystemResetWarning,0830.9,5.01,000.00,028.1,026.4,000.0,036.5,029.7,22.2,0000.0,0008.98,0003.28,0002.54
2023-09-01 15:03:00,SystemResetWarning,0830.9,5.00,000.00,028.1,026.6,000.0,036.5,029.8,22.2,0000.0,0008.87,0003.25,0002.55
2023-09-01 15:04:00,SystemResetWarning,0830.9,5.00,000.00,028.2,026.8,000.0,036.5,029.9,21.4,0000.0,0008.69,0003.27,0002.58
2023-09-01 15:05:00,SystemResetWarning,0830.9,4.98,000.00,028.2,026.0,000.0,036.5,029.6,22.1,0000.0,0008.72,0003.28,0002.61
2023-09-01 15:06:00,SystemResetWarning,0830.9,5.00,000.00,028.1,024.8,000.0,036.4,029.3,23.3,0000.0,0008.31,0003.27,0002.62
2023-09-01 15:07:00,SystemResetWarning,0830.9,5.01,000.00,028.0,024.8,000.0,036.3,029.3,25.9,0000.0,0007.70,0003.25,0002.61
2023-09-01 15:08:00,SystemResetWarning,0830.9,5.00,000.00,028.0,025.1,000.0,036.3,029.3,25.9,0000.0,0007.75,0003.23,0002.61
2023-09-01 15:09:00,SystemResetWarning,0830.9,4.99,000.00,027.9,025.5,000.0,036.4,029.4,25.4,0000.0,0007.80,0003.24,0002.61
2023-09-01 15:10:00,SystemResetWarning,0830.9,5.00,000.00,028.0,025.8,000.0,036.4,029.5,25.7,0000.0,0007.75,0003.23,0002.59
2023-09-01 15:11:00,SystemResetWarning,0830.9,5.01,000.00,028.0,026.1,000.0,036.4,029.6,24.9,0000.0,0006.83,0003.19,0002.58
2023-09-01 15:12:00,SystemResetWarning,0830.9,5.01,000.00,028.0,026.4,000.0,036.4,029.7,24.7,0000.0,0006.30,0003.18,0002.57
2023-09-01 15:13:00,SystemResetWarning,0830.9,4.99,000.00,028.1,026.7,000.0,036.4,029.8,24.0,0000.0,0005.78,0003.19,0002.58
2023-09-01 15:14:00,SystemResetWarning,0830.9,4.99,000.00,028.1,026.9,000.0,036.5,029.9,23.4,0000.0,0006.13,0003.21,0002.57
2023-09-01 15:15:00,SystemResetWarning,0830.9,4.99,000.00,028.2,026.2,000.0,036.4,029.7,23.8,0000.0,0006.27,0003.21,0002.58
2023-09-01 15:16:00,SystemResetWarning,0830.8,5.01,000.00,028.1,024.9,000.0,036.3,029.3,23.9,0000.0,0006.18,0003.20,0002.57
2023-09-01 15:17:00,SystemResetWarning,0830.8,5.02,000.00,028.0,024.7,000.0,036.2,029.3,24.5,0000.0,0006.18,0003.20,0002.57
2023-09-01 15:18:00,SystemResetWarning,0830.9,5.00,000.00,027.9,025.1,000.0,036.2,029.3,24.6,0000.0,0006.14,0003.21,0002.59
2023-09-01 15:19:00,SystemResetWarning,0830.8,5.00,000.00,027.9,025.4,000.0,036.3,029.4,24.9,0000.0,0006.14,0003.23,0002.60
2023-09-01 15:20:00,SystemResetWarning,0830.9,4.99,000.00,027.9,025.8,000.0,036.3,029.5,24.5,0000.0,0006.37,0003.25,0002.60
2023-09-01 15:21:00,SystemResetWarning,0830.9,4.99,000.00,028.0,026.1,000.0,036.3,029.6,25.1,0000.0,0006.45,0003.27,0002.61
2023-09-01 15:22:00,SystemResetWarning,0830.9,4.99,000.00,028.0,026.4,000.0,036.4,029.7,24.7,0000.0,0006.78,0003.29,0002.61
2023-09-01 15:23:00,SystemResetWarning,0830.9,5.00,000.00,028.1,026.7,000.0,036.4,029.8,25.4,0000.0,0007.66,0003.32,0002.62
2023-09-01 15:24:00,SystemResetWarning,0830.9,5.00,000.00,028.1,026.7,000.0,036.4,029.8,24.4,0000.0,0008.03,0003.33,0002.61
2023-09-01 15:25:00,SystemResetWarning,0830.9,5.00,000.00,028.1,025.7,000.0,036.3,029.4,24.1,0000.0,0007.67,0003.33,0002.61
2023-09-01 15:26:00,SystemResetWarning,0830.9,5.00,000.00,027.9,024.7,000.0,036.3,029.1,23.7,0000.0,0007.54,0003.30,0002.59
2023-09-01 15:27:00,SystemResetWarning,0830.9,5.02,000.00,027.9,024.9,000.0,036.2,029.2,25.1,0000.0,0007.49,0003.29,0002.58
2023-09-01 15:28:00,SystemResetWarning,0831.0,5.01,000.00,027.9,025.1,000.0,036.2,029.3,26.0,0000.0,0007.51,0003.31,0002.57
2023-09-01 15:29:00,SystemResetWarning,0831.0,5.00,000.00,027.9,025.5,000.0,036.3,029.4,25.8,0000.0,0007.62,0003.33,0002.56
2023-09-01 15:30:00,SystemResetWarning,0831.0,5.00,000.00,027.9,025.9,000.0,036.3,029.5,25.9,0000.0,0007.66,0003.33,0002.54
2023-09-01 15:31:00,SystemResetWarning,0831.1,5.00,000.00,027.9,026.2,000.0,036.3,029.6,25.9,0000.0,0007.50,0003.32,0002.53
2023-09-01 15:32:00,SystemResetWarning,0831.1,5.00,000.00,028.0,026.5,000.0,036.3,029.7,26.2,0000.0,0007.33,0003.25,0002.52
2023-09-01 15:33:00,SystemResetWarning,0831.2,4.99,000.00,028.0,026.7,000.0,036.3,029.8,25.6,0000.0,0007.24,0003.25,0002.52
2023-09-01 15:34:00,SystemResetWarning,0831.1,4.99,000.00,028.1,026.8,000.0,036.3,029.8,25.5,0000.0,0006.23,0003.22,0002.51
2023-09-01 15:35:00,SystemResetWarning,0831.1,5.00,000.00,028.1,025.8,000.0,036.3,029.4,24.6,0000.0,0005.51,0003.19,0002.50
2023-09-01 15:36:00,SystemResetWarning,0831.1,5.00,000.00,027.9,024.6,000.0,036.2,029.0,24.7,0000.0,0005.54,0003.20,0002.48
2023-09-01 15:37:00,SystemResetWarning,0831.1,5.02,000.00,027.9,024.6,000.0,036.2,029.1,25.7,0000.0,0005.68,0003.23,0002.48
2023-09-01 15:38:00,SystemResetWarning,0831.1,5.01,000.00,027.8,024.9,000.0,036.2,029.1,25.9,0000.0,0005.90,0003.26,0002.48
2023-09-01 15:39:00,SystemResetWarning,0831.2,5.00,000.00,027.8,025.3,000.0,036.2,029.3,26.1,0000.0,0006.02,0003.26,0002.46
2023-09-01 15:40:00,SystemResetWarning,0831.2,5.00,000.00,027.8,025.7,000.0,036.2,029.4,25.3,0000.0,0005.96,0003.24,0002.44
2023-09-01 15:41:00,SystemResetWarning,0831.2,5.00,000.00,027.9,026.0,000.0,036.2,029.5,24.8,0000.0,0005.86,0003.24,0002.42
2023-09-01 15:42:00,SystemResetWarning,0831.2,5.00,000.00,027.9,026.3,000.0,036.3,029.6,24.7,0000.0,0005.92,0003.24,0002.41
2023-09-01 15:43:00,SystemResetWarning,0831.2,5.00,000.00,028.0,026.6,000.0,036.3,029.7,24.4,0000.0,0005.97,0003.26,0002.40
2023-09-01 15:44:00,SystemResetWarning,0831.2,5.00,000.00,028.0,026.8,000.0,036.3,029.8,24.8,0000.0,0005.88,0003.26,0002.41
2023-09-01 15:45:00,SystemResetWarning,0831.2,4.99,000.00,028.1,026.6,000.0,036.3,029.7,24.7,0000.0,0005.73,0003.28,0002.43
2023-09-01 15:46:00,SystemResetWarning,0831.2,4.99,000.00,028.0,025.2,000.0,036.2,029.3,25.0,0000.0,0005.99,0003.32,0002.45
2023-09-01 15:47:00,SystemResetWarning,0831.2,5.00,000.00,027.9,024.4,000.0,036.2,029.1,25.5,0000.0,0007.12,0003.32,0002.46
2023-09-01 15:48:00,SystemResetWarning,0831.2,5.01,000.00,027.8,024.7,000.0,036.1,029.2,25.1,0000.0,0007.23,0003.32,0002.47
2023-09-01 15:49:00,SystemResetWarning,0831.3,5.00,000.00,027.8,025.0,000.0,036.2,029.2,25.4,0000.0,0008.09,0003.31,0002.49
2023-09-01 15:50:00,SystemResetWarning,0831.3,5.00,000.00,027.8,025.4,000.0,036.2,029.3,25.2,0000.0,0008.17,0003.30,0002.50
2023-09-01 15:51:00,SystemResetWarning,0831.3,5.00,000.00,027.8,025.8,000.0,036.2,029.4,24.2,0000.0,0008.17,0003.30,0002.53
2023-09-01 15:52:00,SystemResetWarning,0831.3,5.00,000.00,027.9,026.1,000.0,036.2,029.5,24.3,0000.0,0008.16,0003.31,0002.56
2023-09-01 15:53:00,SystemResetWarning,0831.3,5.00,000.00,027.9,026.4,000.0,036.2,029.6,23.5,0000.0,0008.83,0003.32,0002.60
2023-09-01 15:54:00,SystemResetWarning,0831.3,5.00,000.00,028.0,026.6,000.0,036.3,029.7,22.2,0000.0,0008.89,0003.34,0002.64
2023-09-01 15:55:00,SystemResetWarning,0831.4,4.98,000.00,028.0,026.0,000.0,036.2,029.5,20.6,0000.0,0009.08,0003.35,0002.66
2023-09-01 15:56:00,SystemResetWarning,0831.3,5.01,000.00,027.9,024.6,000.0,036.1,029.1,20.1,0000.0,0009.52,0003.35,0002.66
2023-09-01 15:57:00,SystemResetWarning,0831.3,5.01,000.00,027.8,024.4,000.0,036.1,029.0,20.2,0000.0,0010.84,0003.37,0002.68
2023-09-01 15:58:00,SystemResetWarning,0831.3,4.99,000.00,027.7,024.7,000.0,036.1,029.0,20.3,0000.0,0010.43,0003.39,0002.69
2023-09-01 15:59:00,SystemResetWarning,0831.3,5.00,000.00,027.7,025.0,000.0,036.1,029.1,20.2,0000.0,0010.27,0003.39,0002.71
